星链-37159(STARLINK-37159)

导读

STARLINK-37159(NORAD编号68284)是美国SpaceX公司星链(Starlink)星座的低轨通信卫星,隶属于第二代星链Gen2星座系统,属于V2 Mini卫星类型。星链项目旨在构建全球覆盖的低轨卫星互联网,为全球用户提供高速宽带接入服务,V2 Mini卫星作为第二代星链的迷你版本,重量约800公斤,相比前代卫星通信能力大幅提升,采用增强型相控阵天线与E-band回程技术,单星带宽可达100Gbps,同时配备激光星间链路,可以实现卫星间直接通信,降低对地面基站的依赖,提升全球网络覆盖能力,服务于偏远地区、海上等地面网络无法覆盖区域的互联网接入需求,也为后续星链手机直连服务奠定技术基础,目前该卫星已成功部署进入近地轨道,正常参与星链星座组网运营。

基本信息
目录编号:
68284
目录名称:
STARLINK-37159
国际标识:
2026-055Y
轨道中心:
EARTH
卫星名称:
星链-37159
卫星全名:
星链-37159(STARLINK-37159)
卫星状态:
在轨 (已飞行177 天)
发射日期:
2026-03-19 UTC
国别 :
美国 (US)
星等 :
--
该卫星已列入 空间交会检测服务 Space Conjunction Data Service (SCDS) ,当前飞行风险评估等级: 无高风险
轨道信息
数据来源 国际轨道数据
星历时间: 2026-09-12T02:51:29+0800
12小时前
查看轨道信息
半长轴: 6840.828km
偏心率: 0.0001764
轨道倾角: 53.158°
近地点辐角 98.562°
升交点赤经 172.724°
平近点角 261.558°
近地点: 461.484km
远地点: 463.898km
周期: 93.848分钟
每日圈数: 15.344042
详细信息
固有亮度:
5
最大亮度:
2.5
卫星平台:
Starlink V1.0
覆盖范围:
全球
运营商:
太空探索技术公司
运营商所在国:
美国
制造商(研发单位):
太空探索技术公司
制造商所在国:
美国
使用方式:
暂无
卫星简介
Starlink 计划是 SpaceX 推出的全球卫星互联网项目,通过发射低轨道卫星,为全球尤其是偏远地区提供高速、低延迟的互联网服务。自 2019 年起,Starlink 已部署数千颗卫星,旨在缩小全球数字鸿沟,推动互联网普及。该项目还为军事、航空等行业提供通信支持,带来广泛经济效益。
2D轨道图
3D轨道图
轨道高度分析图
轨道倾角分析图
轨道综合分析图
查看轨道综合分析图
交会数据列表
事件ID 空间交会对象 最接近时刻(TCA) 交会距离 交会风险概率(CRP) 交会风险指数(CRI) 操作
CDM_260914-160705-186106-828421
2026-09-14T
16:07:49+0000
0.716 km
远距离
4.887674E-5 中风险 0.69
CDM_260914-194906-041806-828421
2026-09-14T
19:49:26+0000
1.199 km
极远距离
9.133317E-6 低风险 0.54
CDM_260914-174105-186106-828421
2026-09-14T
17:41:37+0000
2.155 km
极远距离
1.526508E-6 低风险 0.39
CDM_260914-192906-828406-960021
2026-09-14T
19:29:56+0000
2.685 km
极远距离
1.381612E-6 低风险 0.38
CDM_260914-143405-186106-828421
2026-09-14T
14:34:02+0000
2.410 km
极远距离
1.22126E-6 低风险 0.37
CDM_260914-181506-041806-828421
2026-09-14T
18:15:39+0000
2.631 km
极远距离
1.101647E-6 低风险 0.36
CDM_260912-073505-235306-828421
2026-09-12T
07:35:44+0000
2.978 km
极远距离
1.051538E-6 低风险 0.35
CDM_260910-225205-264606-828421
2026-09-10T
22:52:19+0000
2.654 km
极远距离
7.787767E-7 极低风险 0.33
CDM_260910-220505-264606-828421
2026-09-10T
22:05:24+0000
2.887 km
极远距离
6.980296E-7 极低风险 0.32
与全量物体交会距离演化趋势
与全量物体交会风险概率演化趋势